COSMOS 1275 DEB

Satellite information

Favourite Embed

Satellite Type and Status

DEBRISIN ORBIT

Key statistics

Satellite COSMOS 1275 DEB at a glance.

Uptime

16208

Days in orbit

Revolutions

≈ 13.8

Per day

Orbit

LEO

Low Earth Orbit

Inclination

83.1

Latest

Satellite identification and parameters

Extended collection of information and parameters for COSMOS 1275 DEB.

Object identification

Identified? True

Debris? True

Object name: COSMOS 1275 DEB

International designator: 1981-053GT

Object number (NORAD): 13799

Object ID (CCSDS): 13799

Country: COMMONWEALTH OF INDEPENDENT STATES (CIS)

Current information (Y/N): Y

RCS size: SMALL

Orbital parameters

Period: 104.411 minutes

Inclination: 83.1359 deg

SMA: 7344.972 km

Apoapsis: 1032.241 km

Periapsis: 901.433 km

RAAN: 167.0247 deg

Eccentricy: 0.0089046

Argument of periapsis: 87.4472 deg

Mean anomaly: 289.5503 deg

Mean motion: 13.79169103 rev/day

Mean motion (dot): 0.00001614 rev/day2

B* drag term: 0.0015158737 1/REarth

Two-line elements (TLE)

Creation date: Oct. 18, 2025, 2:17 a.m.

Reference frame: TEME

Reference center: EARTH

Epoch: Oct. 17, 2025, 9:42 p.m. UTC

TLE line 0: 0 COSMOS 1275 DEB

TLE line 1: 1 13799U 81053GT 25290.90435391 .00001614 00000-0 15159-2 0 9993

TLE line 2: 2 13799 83.1359 167.0247 0089046 87.4472 289.5503 13.79169103150600

Live tracking on map

Real-time ground track for satellite COSMOS 1275 DEB.

In-orbit conjunctions

A list of the most updated potential collisions computed for object COSMOS 1275 DEB.

Target Orbit TCA Probability of collision Miss distance Type
DELTA 1 R/B(+CAMEO) SSO 2025-01-14 22:48:59 0.0002304183 388.0 (m) ROCKET BODY
FENGYUN 1C DEB SSO 2024-07-17 18:30:19 0.0002321909 60.0 (m) DEBRIS

Associated space launch

Navigation satellite providing location information for the Tsiklon-B navigation system

COSMOS 1275 DEB was lifted into orbit during the mission ‘Kosmos-3M | Parus 27’, on board a Kosmos-3M space rocket.

The launch took place on June 4, 1981, 3:41 p.m. from 132/2.

For more information about the launch, click the button.

Launch to space Kosmos-3M | Parus 27
Kosmos-3M | Parus 27

Agency: N/A

Status: Launch Successful

Launch date: June 4, 1981, 3:41 p.m. UTC

Rocket: Kosmos-3M

Launch pad: 132/2

Location: Plesetsk Cosmodrome, Russian Federation

...

Latest news about this satellite

There are no fresh news available about this satellite. Check back as we update our databases every day.


Newsletter sign-up

Weekly statistics, charts and insights to help you stay on top of the space industry.